Regional Weather Roundup
Issued by NWS Sterling, VA

Home | Current Version | Previous Version | Text Only | Print | Product List | Glossary Off
Versions: 1 2 3 4 5 6 7 8 9 10 11 12 13 14 15 16 17 18 19 20 21 22 23 24 25 26 27 28 29 30 31 32 33 34 35 36 37 38 39 40 41 42 43 44 45 46 47 48 49 50

500
ASUS41 KLWX 240710
RWRLWX

REGIONAL WEATHER ROUNDUP
NATIONAL WEATHER SERVICE BALTIMORE MD/WASHINGTON DC
300 AM EDT TUE MAY 24 2016

Note: "FAIR" indicates few or no clouds below 12,000 feet
with no significant weather and/or obstructions to visibility.
 TC=TEMPERATURE CELSIUS

 * =Non NWS site. Station does not report precipitation (e.g. rain,
    snow, etc.), thunder, or fog.

DCZ001-MDZ009-015-VAZ040>042-051-053>054-240800-
WASHINGTON METRO

CITY           SKY/WX    TMP DP  RH WIND       PRES   REMARKS
WASHINGTON NAT MOCLDY    61  57  87 SW3       29.94S
DULLES         LGT RAIN  57  55  93 SW9       29.94F
ANDREWS AFB    CLOUDY    60  56  87 W6        29.93F
FT BELVOIR     MOCLDY    58  56  92 SE5       29.95R
QUANTICO         N/A     62  55  77 NE3       29.97R
LEESBURG*      CLOUDY    59  59 100 W5        29.96F
MANASSAS*      FAIR      55  55 100 W3        29.97R

$$

MDZ006>007-011-014-240800-
BALTIMORE METRO

CITY           SKY/WX    TMP DP  RH WIND       PRES   REMARKS
BWI AIRPORT    CLOUDY    58  55  90 W7        29.92S
MD SCIENCE CTR   N/A     60  54  80 MISG      29.93S
MARTIN STATE   MOCLDY    59  57  94 W3        29.92F
ANNAPOLIS      CLOUDY    59  56  89 CALM      29.91F

$$

MDZ012-015-019>023-240800-
MARYLAND EASTERN SHORE

CITY           SKY/WX    TMP DP  RH WIND       PRES   REMARKS
OCEAN CITY     CLOUDY    56  51  84 NW5       29.93S
SALISBURY      CLOUDY    57  55  93 CALM      29.94R
EASTON*        CLOUDY    58  58 100 S3        29.95F

$$

MDZ017>025-240800-
SOUTHERN MARYLAND

CITY           SKY/WX    TMP DP  RH WIND       PRES   REMARKS
PATUXENT RIVER MOCLDY    56  54  93 W5        29.94S
ST INIGOES     MOCLDY    59  57  93 W5        29.94S
LEONARDTOWN*   MOCLDY    55  54  94 W3        29.96S

$$

MDZ003>005-240800-
NORTH CENTRAL MARYLAND

CITY           SKY/WX    TMP DP  RH WIND       PRES   REMARKS
FREDERICK*     CLOUDY    59  55  88 S6        29.97S
HAGERSTOWN APT CLEAR     54  52  93 S5        29.96S
WESTMINSTER*   CLOUDY    57  48  72 W3        29.94S

$$

MDZ501>502-240800-
WESTERN MARYLAND

CITY           SKY/WX    TMP DP  RH WIND       PRES   REMARKS
OAKLAND*       NOT AVBL
CUMBERLAND*    CLEAR     55  54  94 CALM      30.03S

$$

VAZ025>031-240800-
SHENANDOAH VALLEY

CITY           SKY/WX    TMP DP  RH WIND       PRES   REMARKS
WINCHESTER*    FAIR      54  52  94 CALM      29.97S
FRONT ROYAL*   FAIR      54  54 100 S7        29.97S
LURAY*         PTSUNNY   57  55  94 S6        30.00S
NEW MARKET*    CLOUDY    55  55  99 CALM      30.00S
STAUNTON*      CLOUDY   N/A N/A N/A CALM      30.05R
WAYNESBORO*    PTSUNNY   53  52  97 CALM      30.03S

$$

WVZ021-048>050-054>055-240800-
EASTERN WEST VIRGINIA PANHANDLE

CITY           SKY/WX    TMP DP  RH WIND       PRES   REMARKS
MARTINSBURG    FAIR      53  52  96 CALM      29.96S
PETERSBURG*    LGT RAIN  56  55  94 CALM      30.02F

$$

VAZ036>039-050-240800-
CENTRAL FOOTHILLS

CITY           SKY/WX    TMP DP  RH WIND       PRES   REMARKS
CHARLOTTESVILL FAIR      58  54  86 SW3       29.97S
CULPEPER*      MOCLDY    54  54 100 CALM      29.98R
ORANGE*        FAIR      59  57  94 CALM      29.98R
GORDONSVILLE*  FAIR      56  56 100 CALM      29.96S
WARRENTON*     FAIR      55  51  85 N5        29.97R

$$

VAZ055>057-240800-
NORTH AND CENTRAL PIEDMONT

CITY           SKY/WX    TMP DP  RH WIND       PRES   REMARKS
FREDERICKSBRG* CLOUDY    57  57 100 CALM      29.93F
STAFFORD*      MOCLDY    56  54  92 NW9       29.98F

$$

NCZ024-NYZ072-PAZ021-071-VAZ022-071-240800-
OTHER REGIONAL OBSERVATIONS

CITY           SKY/WX    TMP DP  RH WIND       PRES   REMARKS
NEW YORK CITY  LGT RAIN  58  53  84 CALM      29.91F
PHILADELPHIA   LGT RAIN  59  54  83 SW14      29.89F
PITTSBURGH     PTCLDY    54  48  80 W5        30.01F
ROANOKE        FAIR      53  51  93 CALM      30.06S
RICHMOND       MOCLDY    51  51 100 S3        29.96F
RALEIGH        PTCLDY    52  50  93 CALM      30.03F

$$

ANZ530>537-240800-
MARINE OBSERVATIONS

STATION/POSITION TIME  TEMP    WIND        PRES
                       AIR SEA DIR/SP/G
                 (UTC) (F)     (DEG/KT/KT) (MB)
THOMAS PT LIGHT  0700   60 61  210/  5/  5 1014.4F
BALT KEY BRIDGE  0600   61     260/  5/  7 1012.8F
COVE POINT       0600   58     280/  2/  3 1014.5F
LEWISETTA        0600   59 63  290/  6/  7 1013.7F
SOLOMONS ISLAND  0600   59 62  240/  5/  5   N/A
PINEY POINT      0600          320/  8/  9   N/A

$$





USA.gov is the U.S. government's official web portal to all federal, state and local government web resources and services.